Location: Lawrence Hall of Science
(37.8785°N, 122.2415°W)
Time: 10:23:12
(UTC-07:00)

Cosmos 1461 - Visible Passes

Search period start: 24 April 2014 00:00
Search period end: 04 May 2014 00:00
Orbit: 532 x 675 km, 65.0° (Epoch: 23 April)

Date Brightness Start Highest point End Pass type
(mag) Time Alt. Az. Time Alt. Az. Time Alt. Az.
24 Apr 4.9 03:13:41 27° ENE 03:13:41 27° ENE 03:16:09 10° NE visible
24 Apr 4.5 04:50:30 21° WNW 04:51:41 23° NW 04:55:12 10° N visible
25 Apr 4.2 03:25:44 42° NE 03:25:44 42° NE 03:28:41 10° NE visible
25 Apr 5.2 05:02:32 12° WNW 05:04:14 14° NW 05:06:29 10° NNW visible
26 Apr 4.0 03:37:42 43° N 03:37:42 43° N 03:40:53 10° NNE visible
27 Apr 6.0 02:12:49 12° ENE 02:12:49 12° ENE 02:13:10 10° ENE visible
27 Apr 4.4 03:49:36 29° NW 03:49:36 29° NW 03:52:48 10° N visible
28 Apr 5.6 02:24:40 18° NE 02:24:40 18° NE 02:25:51 10° NE visible
28 Apr 5.0 04:01:27 18° NW 04:01:27 18° NW 04:04:21 10° N visible
29 Apr 5.2 02:36:27 23° NNE 02:36:27 23° NNE 02:38:09 10° NNE visible
29 Apr 5.5 04:13:14 10° NW 04:13:54 10° NW 04:14:44 10° NNW visible
30 Apr 5.1 02:48:11 24° N 02:48:11 24° N 02:50:10 10° NNE visible
01 May 5.2 02:59:51 20° NNW 02:59:51 20° NNW 03:01:53 10° N visible
02 May 5.9 01:34:42 13° NE 01:34:42 13° NE 01:35:14 10° NE visible
02 May 5.5 03:11:28 14° NW 03:11:28 14° NW 03:13:05 10° NNW visible
03 May 5.7 01:46:16 17° NNE 01:46:16 17° NNE 01:47:20 10° NNE visible
